| time (UTC) | temp C | wind direction | speed KPH | gust KPH | rain 1hr cm | rain 24hr cm | rain mn cm | humidity % | barometer mb |
| 20260902200006 | 16 | 351 | 0.0 | 1.6 | 0.00 | 0.00 | 0.00 | 85 | 1019.2 |
| 20260902195003 | 16 | 351 | 0.0 | 3.2 | 0.00 | 0.00 | 0.00 | 85 | 1019.2 |
| 20260902194009 | 16 | 351 | 1.6 | 3.2 | 0.00 | 0.00 | 0.00 | 84 | 1019.2 |
| 20260902192006 | 16 | 351 | 0.0 | 0.0 | 0.00 | 0.00 | 0.00 | 83 | 1019.4 |
| 20260902191004 | 17 | 351 | 1.6 | 3.2 | 0.00 | 0.00 | 0.00 | 81 | 1019.4 |
| 20260902190006 | 17 | 351 | 1.6 | 3.2 | 0.00 | 0.00 | 0.00 | 81 | 1019.4 |
| 20260902185005 | 17 | 351 | 1.6 | 1.6 | 0.00 | 0.00 | 0.00 | 81 | 1019.3 |
| 20260902184003 | 17 | 351 | 0.0 | 0.0 | 0.00 | 0.00 | 0.00 | 81 | 1019.4 |
| 20260902183003 | 17 | 351 | 0.0 | 0.0 | 0.00 | 0.00 | 0.00 | 79 | 1019.3 |
| 20260902181004 | 17 | 351 | 0.0 | 0.0 | 0.00 | 0.00 | 0.00 | 76 | 1019.1 |
| 20260902180008 | 18 | 351 | 1.6 | 3.2 | 0.00 | 0.00 | 0.00 | 74 | 1019.1 |
| 20260902175004 | 18 | 351 | 3.2 | 4.8 | 0.00 | 0.00 | 0.00 | 73 | 1019.1 |
| 20260902174005 | 19 | 350 | 0.0 | 1.6 | 0.00 | 0.00 | 0.00 | 71 | 1019.1 |
| 20260902173003 | 19 | 350 | 0.0 | 1.6 | 0.00 | 0.00 | 0.00 | 70 | 1019.0 |
| 20260902172006 | 20 | 350 | 1.6 | 3.2 | 0.00 | 0.00 | 0.00 | 69 | 1019.0 |
| 20260902171004 | 20 | 350 | 1.6 | 4.8 | 0.00 | 0.00 | 0.00 | 68 | 1018.9 |
| 20260902170007 | 20 | 350 | 3.2 | 4.8 | 0.00 | 0.00 | 0.00 | 66 | 1018.9 |
| 20260902165003 | 21 | 11 | 4.8 | 8.0 | 0.00 | 0.00 | 0.00 | 66 | 1018.8 |
| 20260902163005 | 21 | 346 | 6.4 | 9.7 | 0.00 | 0.00 | 0.00 | 62 | 1018.8 |
| 20260902162006 | 21 | 316 | 6.4 | 9.7 | 0.00 | 0.00 | 0.00 | 62 | 1018.8 |
| 20260902161004 | 21 | 329 | 6.4 | 12.9 | 0.00 | 0.00 | 0.00 | 62 | 1018.8 |
| 20260902160010 | 22 | 306 | 3.2 | 6.4 | 0.00 | 0.00 | 0.00 | 60 | 1018.9 |
| 20260902155003 | 22 | 306 | 3.2 | 6.4 | 0.00 | 0.00 | 0.00 | 58 | 1019.0 |
| 20260902154005 | 22 | 306 | 4.8 | 12.9 | 0.00 | 0.00 | 0.00 | 56 | 1019.0 |
| 20260902153006 | 22 | 309 | 4.8 | 9.7 | 0.00 | 0.00 | 0.00 | 55 | 1019.0 |
| 20260902152008 | 23 | 327 | 3.2 | 6.4 | 0.00 | 0.00 | 0.00 | 54 | 1019.0 |
| 20260902150009 | 23 | 360 | 3.2 | 6.4 | 0.00 | 0.00 | 0.00 | 56 | 1019.1 |
| 20260902145006 | 23 | 311 | 4.8 | 8.0 | 0.00 | 0.00 | 0.00 | 53 | 1019.1 |
| 20260902144009 | 23 | 311 | 4.8 | 8.0 | 0.00 | 0.00 | 0.00 | 54 | 1019.2 |
| 20260902143005 | 23 | 295 | 8.0 | 16.1 | 0.00 | 0.00 | 0.00 | 55 | 1019.2 |
| 20260902142005 | 23 | 323 | 6.4 | 14.5 | 0.00 | 0.00 | 0.00 | 54 | 1019.3 |
| 20260902141005 | 23 | 163 | 4.8 | 9.7 | 0.00 | 0.00 | 0.00 | 55 | 1019.3 |
| 20260902140007 | 24 | 335 | 3.2 | 6.4 | 0.00 | 0.00 | 0.00 | 53 | 1019.3 |
| 20260902135008 | 23 | 220 | 4.8 | 9.7 | 0.00 | 0.00 | 0.00 | 53 | 1019.5 |
| 20260902134004 | 23 | 273 | 8.0 | 17.7 | 0.00 | 0.00 | 0.00 | 51 | 1019.6 |
| 20260902133007 | 23 | 226 | 6.4 | 14.5 | 0.00 | 0.00 | 0.00 | 52 | 1019.6 |
| 20260902132005 | 23 | 229 | 3.2 | 9.7 | 0.00 | 0.00 | 0.00 | 52 | 1019.7 |
| 20260902130010 | 23 | 300 | 4.8 | 14.5 | 0.00 | 0.00 | 0.00 | 55 | 1019.7 |
| 20260902125005 | 23 | 238 | 8.0 | 16.1 | 0.00 | 0.00 | 0.00 | 51 | 1019.8 |
| 20260902123005 | 23 | 286 | 6.4 | 14.5 | 0.00 | 0.00 | 0.00 | 54 | 1020.0 |
| 20260902122005 | 23 | 194 | 11.3 | 17.7 | 0.00 | 0.00 | 0.00 | 50 | 1020.1 |
| 20260902121005 | 23 | 311 | 8.0 | 17.7 | 0.00 | 0.00 | 0.00 | 50 | 1020.1 |
| 20260902120006 | 24 | 252 | 9.7 | 16.1 | 0.00 | 0.00 | 0.00 | 52 | 1020.1 |
| 20260902115007 | 23 | 172 | 6.4 | 17.7 | 0.00 | 0.00 | 0.00 | 54 | 1020.2 |
| 20260902114004 | 23 | 205 | 8.0 | 14.5 | 0.00 | 0.00 | 0.00 | 58 | 1020.4 |
| 20260902113005 | 22 | 238 | 9.7 | 16.1 | 0.00 | 0.00 | 0.00 | 56 | 1020.4 |
| 20260902112005 | 22 | 285 | 11.3 | 19.3 | 0.00 | 0.00 | 0.00 | 59 | 1020.5 |
| 20260902111004 | 22 | 355 | 9.7 | 17.7 | 0.00 | 0.00 | 0.00 | 57 | 1020.5 |
| 20260902110008 | 23 | 298 | 8.0 | 17.7 | 0.00 | 0.00 | 0.00 | 57 | 1020.5 |
| 20260902105006 | 22 | 292 | 8.0 | 17.7 | 0.00 | 0.00 | 0.00 | 55 | 1020.6 |
| 20260902104004 | 22 | 262 | 8.0 | 17.7 | 0.00 | 0.00 | 0.00 | 55 | 1020.6 |
| 20260902103005 | 22 | 207 | 4.8 | 12.9 | 0.00 | 0.00 | 0.00 | 57 | 1020.5 |
| 20260902102005 | 23 | 300 | 11.3 | 19.3 | 0.00 | 0.00 | 0.00 | 56 | 1020.6 |
| 20260902101005 | 22 | 196 | 8.0 | 14.5 | 0.00 | 0.00 | 0.00 | 56 | 1020.8 |
| 20260902100007 | 22 | 254 | 9.7 | 17.7 | 0.00 | 0.00 | 0.00 | 56 | 1020.9 |
| 20260902094004 | 22 | 242 | 4.8 | 12.9 | 0.00 | 0.00 | 0.00 | 58 | 1020.9 |
| 20260902093004 | 21 | 234 | 6.4 | 14.5 | 0.00 | 0.00 | 0.00 | 58 | 1020.9 |
| 20260902092004 | 21 | 144 | 6.4 | 12.9 | 0.00 | 0.00 | 0.00 | 58 | 1021.0 |
| 20260902091004 | 21 | 121 | 6.4 | 14.5 | 0.00 | 0.00 | 0.00 | 59 | 1021.0 |
| 20260902090009 | 21 | 207 | 6.4 | 12.9 | 0.00 | 0.00 | 0.00 | 59 | 1021.1 |
| 20260902085004 | 21 | 215 | 9.7 | 14.5 | 0.00 | 0.00 | 0.00 | 60 | 1021.1 |
| 20260902084007 | 20 | 180 | 8.0 | 12.9 | 0.00 | 0.00 | 0.00 | 64 | 1021.1 |
| 20260902083004 | 20 | 173 | 6.4 | 12.9 | 0.00 | 0.00 | 0.00 | 66 | 1021.1 |
| 20260902082006 | 19 | 226 | 9.7 | 14.5 | 0.00 | 0.00 | 0.00 | 69 | 1021.2 |
| 20260902080006 | 18 | 261 | 6.4 | 12.9 | 0.00 | 0.00 | 0.00 | 70 | 1021.2 |
| 20260902075006 | 18 | 271 | 3.2 | 9.7 | 0.00 | 0.00 | 0.00 | 72 | 1021.2 |
| 20260902073006 | 17 | 229 | 4.8 | 8.0 | 0.00 | 0.00 | 0.00 | 73 | 1021.0 |
| 20260902072005 | 17 | 196 | 3.2 | 8.0 | 0.00 | 0.00 | 0.00 | 74 | 1021.0 |
| 20260902070008 | 16 | 165 | 3.2 | 4.8 | 0.00 | 0.00 | 0.00 | 76 | 1021.0 |
| 20260902065006 | 16 | 165 | 3.2 | 8.0 | 0.00 | 0.00 | 0.00 | 76 | 1020.9 |
| 20260902064004 | 15 | 165 | 6.4 | 9.7 | 0.00 | 0.00 | 0.00 | 79 | 1020.9 |
| 20260902063005 | 15 | 179 | 6.4 | 9.7 | 0.00 | 0.00 | 0.00 | 79 | 1020.9 |
| 20260902062006 | 15 | 163 | 3.2 | 6.4 | 0.00 | 0.00 | 0.00 | 81 | 1020.9 |
| 20260902060008 | 14 | 163 | 3.2 | 6.4 | 0.00 | 0.00 | 0.00 | 83 | 1020.8 |
| 20260902055006 | 13 | 194 | 3.2 | 6.4 | 0.00 | 0.00 | 0.00 | 84 | 1020.8 |
| 20260902054007 | 13 | 194 | 3.2 | 6.4 | 0.00 | 0.00 | 0.00 | 84 | 1020.8 |
| 20260902053006 | 13 | 194 | 3.2 | 6.4 | 0.00 | 0.00 | 0.00 | 86 | 1020.8 |
| 20260902051006 | 11 | 194 | 0.0 | 1.6 | 0.00 | 0.00 | 0.00 | 90 | 1020.7 |
| 20260902050009 | 10 | 194 | 0.0 | 1.6 | 0.00 | 0.00 | 0.00 | 92 | 1020.6 |
| 20260902045007 | 10 | 194 | 3.2 | 4.8 | 0.00 | 0.00 | 0.00 | 92 | 1020.6 |
| 20260902043005 | 9 | 194 | 0.0 | 1.6 | 0.00 | 0.00 | 0.00 | 92 | 1020.5 |
| 20260902042008 | 10 | 194 | 3.2 | 6.4 | 0.00 | 0.00 | 0.00 | 90 | 1020.5 |
| 20260902035005 | 9 | 194 | 1.6 | 3.2 | 0.00 | 0.00 | 0.00 | 91 | 1020.6 |
| 20260902034005 | 9 | 194 | 4.8 | 6.4 | 0.00 | 0.00 | 0.00 | 91 | 1020.5 |
| 20260902033006 | 10 | 194 | 3.2 | 4.8 | 0.00 | 0.00 | 0.00 | 91 | 1020.5 |
| 20260902031007 | 10 | 194 | 1.6 | 3.2 | 0.00 | 0.00 | 0.00 | 91 | 1020.4 |
| 20260902030008 | 10 | 194 | 0.0 | 3.2 | 0.00 | 0.00 | 0.00 | 91 | 1020.5 |
| 20260902025007 | 10 | 194 | 0.0 | 3.2 | 0.00 | 0.00 | 0.00 | 92 | 1020.5 |
| 20260902024005 | 10 | 194 | 1.6 | 4.8 | 0.00 | 0.00 | 0.00 | 91 | 1020.3 |
| 20260902023007 | 10 | 194 | 3.2 | 4.8 | 0.00 | 0.00 | 0.00 | 91 | 1020.5 |
| 20260902020007 | 10 | 194 | 1.6 | 3.2 | 0.00 | 0.00 | 0.00 | 91 | 1020.6 |
| 20260902015008 | 10 | 194 | 0.0 | 1.6 | 0.00 | 0.00 | 0.00 | 91 | 1020.5 |
| 20260902014005 | 10 | 194 | 0.0 | 1.6 | 0.00 | 0.00 | 0.00 | 91 | 1020.6 |
| 20260902012005 | 10 | 194 | 1.6 | 3.2 | 0.00 | 0.00 | 0.00 | 92 | 1020.7 |
| 20260902011005 | 10 | 194 | 0.0 | 3.2 | 0.00 | 0.00 | 0.00 | 91 | 1020.6 |
| 20260902010007 | 10 | 194 | 1.6 | 1.6 | 0.00 | 0.00 | 0.00 | 91 | 1020.5 |
| 20260902005007 | 10 | 194 | 0.0 | 1.6 | 0.00 | 0.00 | 0.00 | 91 | 1020.5 |
| 20260902004005 | 11 | 194 | 1.6 | 3.2 | 0.00 | 0.00 | 0.00 | 91 | 1020.5 |
| 20260902003004 | 11 | 194 | 3.2 | 4.8 | 0.00 | 0.00 | 0.00 | 90 | 1020.5 |
| 20260902002007 | 11 | 194 | 0.0 | 3.2 | 0.00 | 0.00 | 0.00 | 91 | 1020.5 |
| 20260902001005 | 10 | 194 | 1.6 | 1.6 | 0.00 | 0.00 | 0.00 | 91 | 1020.5 |
| 20260902000009 | 11 | 194 | 1.6 | 3.2 | 0.00 | 0.00 | 0.00 | 91 | 1020.4 |
| 20260901235005 | 11 | 194 | 0.0 | 0.0 | 0.00 | 0.00 | 0.00 | 91 | 1020.4 |
| 20260901234004 | 11 | 194 | 0.0 | 1.6 | 0.00 | 0.00 | 0.00 | 90 | 1020.5 |
| 20260901233006 | 11 | 194 | 0.0 | 3.2 | 0.00 | 0.00 | 0.00 | 91 | 1020.5 |
| 20260901232005 | 11 | 194 | 1.6 | 3.2 | 0.00 | 0.00 | 0.00 | 91 | 1020.4 |
| 20260901231004 | 11 | 194 | 0.0 | 1.6 | 0.00 | 0.00 | 0.00 | 91 | 1020.5 |
| 20260901230009 | 11 | 194 | 1.6 | 1.6 | 0.00 | 0.00 | 0.00 | 90 | 1020.6 |
| 20260901225005 | 11 | 194 | 0.0 | 3.2 | 0.00 | 0.00 | 0.00 | 90 | 1020.5 |
| 20260901224004 | 11 | 194 | 0.0 | 0.0 | 0.00 | 0.00 | 0.00 | 91 | 1020.5 |
| 20260901223006 | 11 | 194 | 0.0 | 1.6 | 0.00 | 0.00 | 0.00 | 90 | 1020.5 |
| 20260901222006 | 11 | 194 | 0.0 | 1.6 | 0.00 | 0.00 | 0.00 | 90 | 1020.5 |
| 20260901221005 | 11 | 194 | 1.6 | 3.2 | 0.00 | 0.00 | 0.00 | 89 | 1020.4 |
| 20260901220011 | 11 | 194 | 0.0 | 0.0 | 0.00 | 0.00 | 0.00 | 90 | 1020.4 |
| 20260901214006 | 12 | 194 | 0.0 | 3.2 | 0.00 | 0.00 | 0.00 | 90 | 1020.4 |
| 20260901213005 | 12 | 194 | 0.0 | 1.6 | 0.00 | 0.00 | 0.00 | 89 | 1020.4 |
| 20260901212005 | 12 | 194 | 1.6 | 3.2 | 0.00 | 0.00 | 0.00 | 89 | 1020.4 |
| 20260901211004 | 12 | 194 | 1.6 | 1.6 | 0.00 | 0.00 | 0.00 | 88 | 1020.5 |
| 20260901210007 | 13 | 194 | 1.6 | 3.2 | 0.00 | 0.00 | 0.00 | 87 | 1020.4 |
| 20260901205005 | 13 | 194 | 1.6 | 3.2 | 0.00 | 0.00 | 0.00 | 88 | 1020.4 |
| 20260901204006 | 13 | 194 | 0.0 | 1.6 | 0.00 | 0.00 | 0.00 | 89 | 1020.4 |
| 20260901203006 | 13 | 194 | 0.0 | 1.6 | 0.00 | 0.00 | 0.00 | 89 | 1020.4 |
| 20260901202005 | 13 | 194 | 1.6 | 1.6 | 0.00 | 0.00 | 0.00 | 89 | 1020.3 |
| 20260901201003 | 13 | 194 | 1.6 | 3.2 | 0.00 | 0.00 | 0.00 | 87 | 1020.3 |